Flag for U.S.A. Weather past 2 weeks in Annapolis, Maryland, U.S.A.

Now
59 °F

Passing clouds.


Feels Like: 59 °F
Forecast: 52 / 65 °F
Wind: 5 mph from Southwest

Location: Annapolis - United States Naval Academy

Current Time: Oct 21, 2014 at 12:26:31 AM

Latest Report: Oct 20, 2014 at 11:54 PM


Visibility: 10 mi

Pressure: 29.94 "Hg

Humidity: 56%

Dew point: 43 °F

Location of AnnapolisLocation

Historic Weather in Annapolis — Graph

°F

Annapolis temperature yesterday

Maximum temperature yesterday: 65 °F (at 3:54 PM)
Minimum temperature yesterday: 41 °F (at 4:54 AM)
Average temperature yesterday: 54 °F

Past Weeks' High & Low Weather Summary

 TemperatureHumidityPressure
High76 °F (Oct 14, 1:54 PM)97% (Oct 13, 7:54 PM)30.31 "Hg (Oct 13, 7:54 PM)
Low41 °F (Oct 20, 4:54 AM)31% (Oct 9, 1:54 PM)29.62 "Hg (Oct 18, 4:54 AM)
Average62 °F71%29.99 "Hg
* Reported Oct 5 10:54 PM — Oct 20 10:54 PM, Annapolis, Weather by CustomWeather, © 2014

Note: Actual official high and low records may vary slightly from our data, if they occured in-between our weather recording intervals... More about our weather records

Advertising

Annapolis weather history for previous 24 hours

 ConditionsComfort  
Time TempWeatherWind HumidityBarometerVisibility
10:54 PM
Oct 20
60 °FPassing clouds.6 mph52%29.96 "Hg10 mi
9:54 PM60 °FPassing clouds.6 mph52%29.97 "Hg10 mi
8:54 PM60 °FClear.9 mph53%29.97 "Hg10 mi
7:54 PM61 °FClear.9 mph52%29.97 "Hg10 mi
6:54 PM61 °FSunny.8 mph54%29.96 "Hg10 mi
5:54 PM61 °FSunny.8 mph58%29.96 "Hg10 mi
4:54 PM63 °FSunny.9 mph52%29.96 "Hg10 mi
3:54 PM65 °FSunny.12 mph49%29.96 "Hg10 mi
2:54 PM64 °FSunny.17 mph49%29.98 "Hg10 mi
1:54 PM63 °FSunny.13 mph50%30.00 "Hg10 mi
12:54 PM62 °FSunny.14 mph46%30.04 "Hg10 mi
11:54 AM60 °FSunny.13 mph53%30.09 "Hg10 mi
10:54 AM58 °FSunny.13 mph56%30.12 "Hg10 mi
9:54 AM54 °FSunny.No wind64%30.14 "Hg10 mi
8:54 AM51 °FSunny.No wind61%30.14 "Hg10 mi
7:54 AM44 °FClear.No wind73%30.12 "Hg10 mi
6:54 AM42 °FClear.No wind82%30.13 "Hg10 mi
5:54 AM42 °FClear.No wind82%30.12 "Hg10 mi
4:54 AM41 °FClear.No wind89%30.11 "Hg10 mi
3:54 AM44 °FClear.No wind82%30.10 "Hg10 mi
2:54 AM43 °FClear.3 mph76%30.12 "Hg10 mi
1:54 AM45 °FClear.3 mph68%30.11 "Hg10 mi
12:54 AM46 °FClear.No wind66%30.11 "Hg10 mi
Weather by CustomWeather, © 2014

See weather overviewHow to use our weather pages